[Date Prev][Date Next][Thread Prev][Thread Next] - [Date Index][Thread Index][Author Index]
STS-104 Nominal Orbital Data
- Subject: [sarex] STS-104 Nominal Orbital Data
- From: "Ken Ernandes" <n2wwd@xxxxxxxxxxxxxx>
- Date: Mon, 25 Jun 2001 14:44:25 -0400
Below is the nominal State Vector and Keplerian Elements for
STS-104. The vector data comes from NASA; the Keplerian Elements
were computed from the vector.
This file may be read by VEC2TLE version 9648 to update your
Keplerian Elements text file.
Vector format = 10117
Satellite Name: STS-104
Catalog Number: 90104
Epoch MET: 0.03022064815
0/00:43:31.064 MET
EFG E: 6239252.908248 ft
F: 20383633.253768 ft
G: -4008940.113069 ft
Edot: -14958.221707 ft/s
Fdot: 720.903136 ft/s
Gdot: -19344.009293 ft/s
ndot/2 (drag): 0.00497218538 rev/day^2
nddt/6: 1.01236E-06 rev/day^3
Bstar: 7.29484E-05 1/Earth Radii
Elset #: 1
Rev @ Epoch: 1.53852342425
Launch Scheduled: 2001-JUL-12 0903:59 UTC
Note that 90104 is a temporary Catalog Number. A permanent Catalog
Number and International Designator will be assigned when STS-104
is launched.
The following Keplerian elements were computed by VEC2TLE from the
vector, using a 0.5 drag multiplier:
STS-104
1 90104U 01193.40798685 .00497219 10124-5 72948-4 0 18
2 90104 51.5683 321.6285 0058227 346.2464 207.6107 16.28255749 17
Satellite: STS-104
Catalog number: 90104
Epoch time: 01193.40798685
Element set: 1
Inclination: 51.5683 deg
RA of node: 321.6285 deg
Eccentricity: 0.0058227
Arg of perigee: 346.2464 deg
Mean anomaly: 207.6107 deg
Mean motion: 16.28255749 rev/day
Decay rate: 4.97219e-03 rev/day^2
Epoch rev: 1
Checksum: 301
VEC2TLE may be downloaded from <http://www.orbitessera.com>.
Ken Ernandes
n2wwd@amsat.org
http://www.orbitessera.com
----
Via the sarex mailing list at AMSAT.ORG courtesy of AMSAT-NA.
To unsubscribe, send "unsubscribe sarex" to Majordomo@amsat.org
AMSAT Home